Weather History for Richlands, VA

Change the Weather History Date:

Monday, June 9, 2014

  Actual Average (KBLF) Record (KBLF)
Temperature  
Mean Temperature 71 °F 68 °F  
Max Temperature 80 °F 77 °F 90 °F (2011)
Min Temperature 62 °F 60 °F 41 °F (1980)
Degree Days  
Heating Degree Days 0 1  
Month to date heating degree days 14  
Since 1 June heating degree days 14  
Since 1 July heating degree days 4580  
Cooling Degree Days 6 4  
Month to date cooling degree days 35  
Year to date cooling degree days 126  
Since 1 June cooling degree days 35  
Growing Degree Days 21 (Base 50)    
Moisture  
Dew Point 60 °F    
Average Humidity 75    
Maximum Humidity 93    
Minimum Humidity 49    
Precipitation  
Precipitation 0.04 in 0.14 in 1.35 in (1968)
Month to date precipitation 1.31  
Year to date precipitation 18.13  
Snow  
Snow 0.00 in - - ()
Month to date snowfall  
Since 1 June snowfall  
Since 1 July snowfall  
Snow Depth -    
Sea Level Pressure  
Sea Level Pressure 29.99 in    
Wind  
Wind Speed 2 mph (West)    
Max Wind Speed 8 mph    
Max Gust Speed -    
Visibility 10 miles    
Events Rain    
T = Trace of Precipitation, MM = Missing Value Source: NWS Daily Summary

Daily Weather History Graph

Daily Weather History Graph

Search for Another Location

Airport:

Trip Planner

Search our weather history database for the weather conditions in past years. The results will help you decide how hot, cold, wet, or windy it might be!

Date:

Astronomy

Jun. 09, 2014 Rise Set
Actual Time 6:07 AM EDT 8:46 PM EDT
Civil Twilight 5:36 AM EDT 9:16 PM EDT
Nautical Twilight 4:58 AM EDT 9:55 PM EDT
Astronomical Twilight 4:15 AM EDT 10:37 PM EDT
Moon 5:10 PM EDT (6/9) 3:28 AM EDT (6/9)
Length of Visible Light 15h 40m
Length of Day
14h 39m
Waxing Gibbous, 85% of the Moon is Illuminated
Jun 9
Waxing Gibbous
Jun 13
Full
Jun 19
Last Quarter
Jun 27
New
Jul 5
First Quarter

Hourly Weather History & Observations

Time (EDT) Temp. Heat Index Dew Point Humidity Pressure Visibility Wind Dir Wind Speed Gust Speed Precip Events Conditions
12:15 AM 67.3 °F - 58.8 °F 74% 30.01 in 10.0 mi NW 5.8 mph - N/A   Overcast
12:35 AM 66.4 °F - 57.9 °F 74% 30.01 in 10.0 mi West 5.8 mph - N/A   Overcast
12:55 AM 66.4 °F - 58.1 °F 75% 30.01 in 10.0 mi Calm Calm - N/A   Overcast
1:15 AM 66.2 °F - 57.7 °F 74% 30.01 in 10.0 mi Calm Calm - N/A   Overcast
1:35 AM 65.5 °F - 57.6 °F 76% 30.01 in 10.0 mi Calm Calm - N/A   Overcast
1:55 AM 64.8 °F - 57.7 °F 78% 30.00 in 10.0 mi Calm Calm - N/A   Mostly Cloudy
2:15 AM 64.6 °F - 58.1 °F 79% 30.00 in 10.0 mi West 3.5 mph - N/A   Mostly Cloudy
2:35 AM 64.0 °F - 58.3 °F 82% 29.99 in 10.0 mi NNW 3.5 mph - N/A   Overcast
2:55 AM 63.7 °F - 58.3 °F 83% 29.98 in 10.0 mi Calm Calm - N/A   Overcast
3:15 AM 63.5 °F - 58.3 °F 83% 29.98 in 10.0 mi Calm Calm - N/A   Mostly Cloudy
3:35 AM 63.1 °F - 58.3 °F 84% 29.98 in 10.0 mi Calm Calm - N/A   Overcast
3:55 AM 63.5 °F - 58.3 °F 83% 29.98 in 10.0 mi Calm Calm - N/A   Overcast
4:15 AM 63.1 °F - 58.3 °F 84% 29.98 in 10.0 mi Calm Calm - N/A   Overcast
4:35 AM 63.0 °F - 58.3 °F 85% 29.98 in 10.0 mi Calm Calm - N/A   Overcast
4:55 AM 63.0 °F - 58.5 °F 85% 29.98 in 10.0 mi Calm Calm - N/A   Overcast
5:15 AM 63.0 °F - 58.6 °F 86% 29.97 in 10.0 mi Calm Calm - N/A   Overcast
5:35 AM 62.8 °F - 58.6 °F 86% 29.98 in 10.0 mi Calm Calm - N/A   Overcast
5:55 AM 62.8 °F - 58.8 °F 87% 29.98 in 10.0 mi Calm Calm - N/A   Overcast
6:15 AM 62.8 °F - 59.0 °F 87% 29.99 in 10.0 mi Calm Calm - N/A   Overcast
6:35 AM 62.8 °F - 58.8 °F 87% 29.99 in 10.0 mi Calm Calm - N/A   Overcast
6:55 AM 62.8 °F - 59.0 °F 87% 30.00 in 10.0 mi Calm Calm - N/A   Overcast
7:15 AM 62.8 °F - 59.0 °F 87% 30.00 in 10.0 mi Calm Calm - N/A   Overcast
7:35 AM 63.0 °F - 58.8 °F 86% 30.01 in 10.0 mi Calm Calm - N/A   Overcast
7:55 AM 63.0 °F - 58.8 °F 86% 30.01 in 10.0 mi NNW 3.5 mph - N/A   Overcast
8:15 AM 63.3 °F - 59.0 °F 86% 30.01 in 10.0 mi Calm Calm - N/A   Overcast
8:35 AM 63.5 °F - 59.0 °F 85% 30.01 in 10.0 mi Calm Calm - N/A   Overcast
8:55 AM 64.4 °F - 58.8 °F 82% 30.01 in 10.0 mi Calm Calm - N/A   Overcast
9:15 AM 64.9 °F - 59.0 °F 81% 30.01 in 10.0 mi Calm Calm - N/A   Overcast
9:35 AM 66.0 °F - 59.2 °F 79% 30.01 in 10.0 mi Calm Calm - N/A   Overcast
9:55 AM 66.4 °F - 59.2 °F 78% 30.01 in 10.0 mi Calm Calm - N/A   Overcast
10:15 AM 67.3 °F - 58.1 °F 72% 30.01 in 10.0 mi West 5.8 mph - N/A   Overcast
10:35 AM 67.8 °F - 59.0 °F 73% 30.01 in 10.0 mi West 5.8 mph - N/A   Overcast
10:55 AM 68.4 °F - 58.3 °F 70% 30.01 in 10.0 mi Calm Calm - N/A   Overcast
11:15 AM 70.3 °F - 58.6 °F 66% 30.01 in 10.0 mi West 4.6 mph - N/A   Overcast
11:35 AM 70.3 °F - 58.8 °F 67% 30.01 in 10.0 mi West 8.1 mph - N/A   Overcast
11:55 AM 71.2 °F - 58.5 °F 64% 30.01 in 10.0 mi WSW 4.6 mph - N/A   Overcast
12:15 PM 70.9 °F - 58.5 °F 65% 30.01 in 10.0 mi WNW 3.5 mph - N/A   Overcast
12:35 PM 72.1 °F - 59.9 °F 65% 30.00 in 10.0 mi WSW 3.5 mph - N/A   Mostly Cloudy
12:55 PM 73.4 °F - 59.5 °F 62% 30.01 in 10.0 mi WSW 6.9 mph - N/A   Scattered Clouds
1:15 PM 74.3 °F - 59.5 °F 60% 30.00 in 10.0 mi West 4.6 mph - N/A   Scattered Clouds
1:35 PM 75.6 °F - 60.1 °F 59% 30.00 in 10.0 mi Calm Calm - N/A   Scattered Clouds
1:55 PM 75.7 °F - 61.0 °F 60% 30.01 in 10.0 mi West 8.1 mph - N/A   Mostly Cloudy
2:15 PM 76.6 °F - 60.4 °F 57% 29.99 in 10.0 mi Calm Calm - N/A   Scattered Clouds
2:35 PM 76.6 °F - 60.4 °F 57% 29.99 in 10.0 mi West 4.6 mph - N/A   Clear
3:35 PM 78.8 °F - 58.8 °F 50% 29.97 in 10.0 mi NW 5.8 mph - N/A   Scattered Clouds
3:55 PM 79.3 °F - 58.6 °F 49% 29.97 in 10.0 mi Calm Calm - N/A   Mostly Cloudy
4:15 PM 79.5 °F - 59.2 °F 50% 29.97 in 10.0 mi NW 4.6 mph - N/A   Mostly Cloudy
4:35 PM 80.4 °F 81.2 °F 60.4 °F 50% 29.96 in 10.0 mi West 6.9 mph - N/A   Scattered Clouds
4:55 PM 79.9 °F - 59.5 °F 50% 29.96 in 10.0 mi SW 5.8 mph - N/A   Clear
5:15 PM 79.9 °F - 59.9 °F 50% 29.95 in 10.0 mi West 5.8 mph - N/A   Scattered Clouds
5:35 PM 78.4 °F - 60.1 °F 53% 29.96 in 10.0 mi West 6.9 mph - N/A   Mostly Cloudy
5:55 PM 79.5 °F - 61.0 °F 53% 29.96 in 10.0 mi WNW 4.6 mph - N/A   Mostly Cloudy
6:15 PM 78.6 °F - 60.1 °F 53% 29.94 in 10.0 mi WNW 3.5 mph - N/A   Mostly Cloudy
6:35 PM 77.4 °F - 60.4 °F 56% 29.94 in 10.0 mi Calm Calm - N/A   Mostly Cloudy
6:55 PM 77.0 °F - 59.4 °F 54% 29.94 in 10.0 mi Calm Calm - N/A   Overcast
7:15 PM 75.4 °F - 61.7 °F 62% 29.96 in 7.0 mi Calm Calm - N/A Rain Light Rain
7:35 PM 72.1 °F - 63.1 °F 73% 29.97 in 3.0 mi NW 3.5 mph - 0.03 in Rain Rain
7:55 PM 69.6 °F - 64.4 °F 83% 29.98 in 5.0 mi Calm Calm - 0.04 in Rain Heavy Rain
8:15 PM 68.5 °F - 64.4 °F 87% 29.98 in 10.0 mi WNW 5.8 mph - N/A   Overcast
8:35 PM 68.2 °F - 64.8 °F 89% 29.98 in 10.0 mi West 3.5 mph - N/A   Overcast
8:55 PM 68.0 °F - 64.9 °F 90% 29.99 in 10.0 mi West 3.5 mph - N/A   Overcast
9:15 PM 67.5 °F - 64.8 °F 91% 29.98 in 7.0 mi Calm Calm - N/A   Drizzle
9:35 PM 67.5 °F - 65.5 °F 93% 29.98 in 1.8 mi Calm Calm - N/A   Overcast
9:55 PM 67.5 °F - 65.3 °F 93% 29.99 in 7.0 mi South 3.5 mph - N/A   Overcast
10:15 PM 67.8 °F - 64.4 °F 89% 29.99 in 10.0 mi SW 6.9 mph - N/A   Overcast
10:35 PM 68.0 °F - 63.9 °F 87% 30.00 in 10.0 mi WSW 5.8 mph - N/A   Mostly Cloudy
10:55 PM 67.6 °F - 63.7 °F 87% 30.01 in 10.0 mi WSW 5.8 mph - N/A   Scattered Clouds
11:15 PM 67.1 °F - 63.7 °F 89% 30.01 in 10.0 mi SW 3.5 mph - N/A   Clear
11:35 PM 66.2 °F - 63.7 °F 92% 30.01 in 4.0 mi SW 3.5 mph - N/A   Clear
11:55 PM 66.4 °F - 63.9 °F 92% 30.01 in 10.0 mi Calm Calm - N/A   Clear